[[{"header":{"parameterUnit":"m.s-1","parameterCategory":1,"la1":30.2991,"la2":30.254,"lo1":-89.0895,"lo2":-89.0444,"dy":0.0017,"dx":0.0017,"nx":28,"ny":28,"refTime":"2024-09-27T03:00:00:Z","depth":0,"parameterNumber":2,"parameterNumberName":"U-component_of_WINDS"},"data":[0,0,0,0,0,0,0,0,0,0,0,0,0,0,0,0,0,0,0,0,0,0,0,0,0,0,0,0,0,0,0,0,0,0,0,0,0,0,0,0,0,0,0,0,0,0,0,0,0,0,0,0,0,0,0,0,0,0,6.4154,6.4156,0,6.4412,6.4415,6.4418,6.4367,6.4362,6.4357,6.4353,6.462,6.4632,6.4643,0,0,0,0,0,0,0,0,0,0,0,0,0,6.3614,6.3625,6.4153,6.4157,6.416,6.4412,6.4415,6.4419,6.4367,6.4362,6.4356,6.435,6.4617,6.463,6.4644,0,0,0,0,0,0,0,0,0,0,0,0,0,6.3859,6.3628,6.4153,6.4164,6.4168,6.4411,6.4416,6.442,6.4369,6.4361,6.4354,6.4348,6.4612,6.4629,6.4646,6.4895,0,0,6.4699,6.4706,0,0,0,0,0,0,0,0,6.3845,6.3878,6.416,6.4164,6.4169,6.435,6.4324,6.4579,6.437,6.4293,6.4352,6.4344,6.4536,6.4559,6.4624,6.4907,6.4919,6.47,6.4711,6.4718,6.4723,0,0,0,0,0,0,0,6.3828,6.3867,6.4256,6.4164,6.4169,6.4157,6.4184,6.4372,6.4451,6.4299,6.4296,6.4327,6.4537,6.4607,6.4629,6.4923,6.47,6.4715,6.4726,6.4733,6.5419,6.5426,0,0,0,0,0,0,6.3807,6.3853,6.4248,6.4264,6.3986,6.4172,6.4202,6.4299,6.4449,6.4465,6.4333,6.4323,6.4581,6.4609,6.4639,6.4936,6.4718,6.4734,6.4744,6.5411,6.542,6.5429,0,0,0,0,0,0,6.3795,6.3842,6.4237,6.4058,6.4107,6.4189,6.4298,6.4308,6.4377,6.4474,6.4488,6.4389,6.4576,6.4614,6.483,6.4945,6.4742,6.4758,6.5402,6.5414,6.5425,6.5535,0,0,0,0,0,0,6.378,6.3839,6.3934,6.406,6.4117,6.4425,6.4305,6.4318,6.4407,6.4397,6.4531,6.4546,6.4574,6.4805,6.4847,6.4965,6.4771,6.5392,6.5407,6.5421,6.5522,6.5549,6.5573,0,0,0,0,0,6.3761,6.3957,6.3939,6.3987,6.4238,6.4431,6.4464,6.449,6.4416,6.4512,6.4574,6.4542,6.4926,6.4827,6.4875,6.4999,6.5385,6.5403,6.542,6.551,6.5544,6.5572,0,0,0,0,0,0,6.3843,6.3973,6.3956,6.4198,6.4304,6.4422,6.4544,6.4526,6.4656,6.4642,6.467,6.4701,6.4919,6.4982,6.4869,6.5246,6.5145,6.5173,6.5197,6.523,6.5255,6.5234,6.4786,0,0,0,0,0,6.3889,6.4036,6.4141,6.4345,6.4399,6.4463,6.4548,6.4559,6.467,6.4715,6.4793,6.4903,6.5047,6.5143,6.5282,6.5531,6.5557,6.564,6.5665,6.5686,6.5709,6.5842,6.5878,6.5487,6.5487,6.5486,0,0,6.3987,6.4076,6.4166,6.4363,6.4447,6.4596,6.4501,6.4665,6.4775,6.4741,6.4947,6.5009,6.5133,6.5365,6.5472,6.5424,6.5823,6.5709,6.5724,6.5736,6.5864,6.5901,6.5933,6.5499,6.5497,6.5495,0,0,6.4239,6.4323,6.4499,6.4584,6.471,6.4751,6.4794,6.4915,6.4954,6.5162,6.5137,6.527,6.5521,6.5608,6.5686,6.5969,6.5943,6.6014,6.6147,6.6276,6.6307,6.6334,6.6432,6.6467,6.6037,6.6038,6.6038,0,6.4344,6.4568,6.4592,6.4757,6.4843,6.4817,6.4995,6.5077,6.5243,6.5303,6.5247,6.5557,6.5639,6.589,6.5958,6.6024,6.6071,6.5998,6.63,6.6328,6.6354,6.6447,6.6484,6.6045,6.6044,6.6044,6.6043,0,6.4689,6.4845,6.4972,6.513,6.5231,6.5403,6.5451,6.5551,6.5553,6.5599,6.581,6.5907,6.6064,6.6125,6.613,6.6376,6.6341,6.6293,6.6191,6.6398,6.6486,6.6522,6.6056,6.6053,6.6051,6.6049,0,0,6.5,6.5168,6.5214,6.5284,6.5421,6.5542,6.5711,6.5862,6.5945,6.6061,6.6201,6.6412,6.6367,6.6455,6.6469,6.6583,6.6796,6.652,6.6523,6.6565,6.7069,6.7102,6.7143,6.6781,6.6788,6.6793,6.7057,0,6.5263,6.5559,6.5584,6.585,6.5993,6.5969,6.6116,6.6215,6.6263,6.6391,6.6444,6.6591,6.6522,6.6574,6.6686,6.6746,6.6897,6.6728,6.691,6.6916,6.6876,6.719,6.7226,6.7471,6.7092,6.7098,6.7102,0,6.5608,6.5731,6.601,6.6124,6.6185,6.6316,6.6454,6.6578,6.669,6.6716,6.6813,6.6811,6.6984,6.6877,6.7114,6.6998,6.7074,6.7115,6.7125,6.7141,6.7019,6.721,6.755,6.7585,6.7158,6.7153,6.7149,0,6.5802,6.6038,6.6235,6.6296,6.6435,6.6526,6.6589,6.6693,6.6781,6.6903,6.696,6.7102,6.7178,6.7287,6.7323,6.7243,6.7557,6.7455,6.7582,6.7581,6.7648,6.7642,6.8,6.7703,6.7702,6.7701,6.77,0,6.6091,6.6262,6.6323,6.6444,6.6634,6.6662,6.6849,6.6907,6.6999,6.713,6.712,6.7243,6.7284,6.7414,6.7444,6.7633,6.7669,6.7694,6.7699,6.7693,6.7689,6.7741,6.7724,6.7711,6.7709,6.7707,6.7705,0,6.6339,6.6387,6.6599,6.6712,6.6744,6.6879,6.6975,6.7091,6.7136,6.7301,6.7342,6.7413,6.7565,6.7612,6.7796,6.7816,6.8036,6.8028,6.7997,6.7997,6.812,6.8107,6.8522,6.8576,6.8245,6.8249,6.8251,0,6.6518,6.6649,6.6774,6.686,6.6925,6.7065,6.7153,6.7186,6.7279,6.7414,6.7513,6.7663,6.7784,6.8028,6.8096,6.8236,6.8229,6.8365,6.825,6.8238,6.8226,6.8217,6.8228,6.8385,6.8389,6.8391,6.8394,0,6.683,6.6846,6.6974,6.7111,6.7217,6.7326,6.7431,6.7503,6.755,6.7655,6.7809,6.7903,6.8089,6.8237,6.8378,6.8442,6.8426,6.8429,6.8466,6.8459,6.8434,6.8445,6.8052,6.8419,6.8417,6.8415,6.8413,6.8412,6.7046,6.716,6.7265,6.7407,6.7489,6.7587,6.77,6.7758,6.7886,6.8039,6.8051,6.8216,6.8322,6.851,6.8581,6.8711,6.8672,6.8725,6.8738,6.875,6.8758,6.8416,6.8738,6.8737,6.8736,6.8736,6.8735,0,6.7354,6.7419,6.755,6.7696,6.7808,6.7782,6.7896,6.7991,6.8136,6.8236,6.8355,6.853,6.8673,6.8752,6.8894,6.8982,6.8978,6.9018,6.9011,6.9025,6.8787,6.8739,6.9019,6.9019,6.9019,6.9019,6.9019,6.9019,6.7526,6.7715,6.7744,6.7973,6.8038,6.8199,6.8266,6.8355,6.8434,6.863,6.8748,6.8798,6.8889,6.9037,6.9166,6.9185,6.9237,6.9281,6.9295,6.9071,6.9042,6.9014,6.8969,6.9293,6.9293,6.9522,6.9524,6.9526]},{"header":{"parameterUnit":"m.s-1","parameterCategory":1,"la1":30.2991,"la2":30.254,"lo1":-89.0895,"lo2":-89.0444,"dy":0.0017,"dx":0.0017,"nx":28,"ny":28,"refTime":"2024-09-27T03:00:00:Z","depth":0,"parameterNumber":3,"parameterNumberName":"V-component_of_WINDS"},"data":[0,0,0,0,0,0,0,0,0,0,0,0,0,0,0,0,0,0,0,0,0,0,0,0,0,0,0,0,0,0,0,0,0,0,0,0,0,0,0,0,0,0,0,0,0,0,0,0,0,0,0,0,0,0,0,0,0,0,3.5166,3.5168,0,3.5265,3.5266,3.5268,3.5234,3.5231,3.5229,3.5227,3.5327,3.5332,3.5336,0,0,0,0,0,0,0,0,0,0,0,0,0,3.4945,3.4949,3.5166,3.5168,3.5169,3.5265,3.5267,3.5268,3.5234,3.5231,3.5229,3.5226,3.5325,3.5331,3.5337,0,0,0,0,0,0,0,0,0,0,0,0,0,3.5042,3.4951,3.5166,3.5164,3.5164,3.5265,3.5267,3.5268,3.5235,3.5231,3.5228,3.5225,3.5324,3.533,3.5337,3.5446,0,0,3.5359,3.5362,0,0,0,0,0,0,0,0,3.5037,3.5051,3.5163,3.5164,3.5165,3.5234,3.5225,3.5328,3.5235,3.5208,3.5227,3.5223,3.5299,3.5307,3.5333,3.5451,3.5455,3.5359,3.5364,3.5367,3.5369,0,0,0,0,0,0,0,3.503,3.5046,3.5205,3.5164,3.5166,3.5157,3.5167,3.5244,3.527,3.521,3.5208,3.522,3.5298,3.5326,3.5335,3.5456,3.5359,3.5365,3.537,3.5373,3.5665,3.5669,0,0,0,0,0,0,3.5023,3.5041,3.5202,3.5208,3.5092,3.5163,3.5175,3.5215,3.5269,3.5274,3.5223,3.5218,3.5316,3.5327,3.5339,3.5468,3.5367,3.5373,3.5377,3.5662,3.5666,3.567,0,0,0,0,0,0,3.5019,3.5038,3.5198,3.5124,3.5144,3.517,3.5216,3.5219,3.5247,3.5279,3.5283,3.5247,3.5314,3.5329,3.5419,3.5471,3.5376,3.5383,3.5658,3.5663,3.5668,3.5729,0,0,0,0,0,0,3.5012,3.5037,3.5079,3.5125,3.5148,3.5278,3.5219,3.5223,3.5259,3.5254,3.5303,3.5307,3.5312,3.5409,3.5426,3.5479,3.5388,3.5653,3.566,3.5667,3.5722,3.5735,3.5747,0,0,0,0,0,3.5005,3.5092,3.5081,3.5101,3.5202,3.5282,3.5294,3.5299,3.5263,3.5306,3.5326,3.5306,3.5462,3.5418,3.5438,3.5493,3.565,3.5658,3.5666,3.5717,3.5733,3.5746,0,0,0,0,0,0,3.5051,3.5098,3.5087,3.5192,3.5233,3.5276,3.5329,3.5316,3.5368,3.5361,3.5363,3.5375,3.5467,3.5489,3.5439,3.56,3.5551,3.5563,3.5583,3.5598,3.561,3.5603,3.5394,0,0,0,0,0,3.5074,3.5135,3.5173,3.5262,3.5283,3.5303,3.5338,3.5337,3.538,3.5397,3.5424,3.5465,3.5524,3.5562,3.5618,3.5725,3.5734,3.5772,3.5785,3.5795,3.5805,3.5862,3.5879,3.5697,3.5696,3.5696,0,0,3.5121,3.5154,3.5193,3.5272,3.5304,3.5367,3.5318,3.5387,3.5433,3.5407,3.5494,3.5515,3.5561,3.566,3.5705,3.5681,3.5857,3.5805,3.5813,3.5818,3.5872,3.5889,3.5904,3.5702,3.5701,3.57,0,0,3.5239,3.5271,3.5348,3.538,3.5429,3.5441,3.5459,3.5504,3.5517,3.5604,3.5586,3.564,3.5741,3.5774,3.5805,3.5933,3.5916,3.5951,3.6015,3.607,3.6085,3.6097,3.6142,3.6158,3.5961,3.5961,3.5961,0,3.5291,3.5386,3.5389,3.5459,3.5494,3.5473,3.5551,3.5582,3.5646,3.567,3.5642,3.5767,3.5797,3.5903,3.5934,3.5959,3.5979,3.5945,3.6082,3.6095,3.6107,3.615,3.6167,3.5965,3.5965,3.5964,3.5964,0,3.5447,3.5513,3.5569,3.5632,3.5673,3.5746,3.5759,3.58,3.5795,3.581,3.5898,3.5933,3.5994,3.6019,3.6016,3.6124,3.6107,3.6081,3.6032,3.6128,3.6168,3.6185,3.5971,3.5969,3.5968,3.5967,0,0,3.5598,3.566,3.5681,3.5708,3.576,3.581,3.5882,3.5942,3.5976,3.6021,3.608,3.6165,3.6141,3.6175,3.6174,3.6223,3.6321,3.619,3.6191,3.6213,3.644,3.646,3.6479,3.6309,3.6313,3.6315,3.6436,0,3.572,3.5847,3.585,3.5966,3.6026,3.6006,3.6068,3.6106,3.6121,3.6173,3.6189,3.6249,3.6213,3.6233,3.628,3.6299,3.6366,3.629,3.6364,3.6366,3.6353,3.65,3.6521,3.6633,3.6452,3.6455,3.6457,0,3.5879,3.5928,3.605,3.6091,3.6116,3.6172,3.6227,3.6277,3.6319,3.6326,3.6363,3.6355,3.6427,3.6375,3.6473,3.6421,3.6451,3.6464,3.6469,3.6476,3.6417,3.651,3.667,3.6686,3.6482,3.648,3.6478,0,3.5976,3.6073,3.6157,3.6181,3.6232,3.6271,3.6294,3.6332,3.6368,3.6415,3.6438,3.6493,3.6523,3.6565,3.6571,3.6533,3.6669,3.6618,3.6676,3.6676,3.6706,3.6704,3.6872,3.6726,3.6726,3.6726,3.6725,0,3.6111,3.6186,3.6201,3.6254,3.6336,3.6339,3.642,3.644,3.6474,3.6528,3.6514,3.6566,3.6571,3.6624,3.6629,3.6709,3.6722,3.6729,3.673,3.6731,3.673,3.675,3.6743,3.673,3.6729,3.6728,3.6727,0,3.6234,3.6247,3.6338,3.6378,3.639,3.6449,3.6482,3.6531,3.6544,3.6613,3.663,3.665,3.6711,3.6721,3.6793,3.6796,3.6891,3.6884,3.6878,3.6877,3.6934,3.6928,3.7121,3.7146,3.6984,3.6986,3.6987,0,3.6319,3.6376,3.6422,3.6457,3.6482,3.654,3.6576,3.658,3.6618,3.6668,3.6711,3.677,3.6818,3.6916,3.6937,3.6991,3.6984,3.7048,3.6992,3.6991,3.6984,3.6981,3.6986,3.7059,3.7061,3.7062,3.7063,0,3.6468,3.6472,3.6525,3.658,3.6623,3.6666,3.6707,3.6737,3.6746,3.6789,3.6851,3.6888,3.6961,3.7019,3.7073,3.7095,3.7081,3.708,3.7097,3.7098,3.7091,3.7095,3.6906,3.7076,3.7075,3.7074,3.7073,3.7073,3.6574,3.6624,3.6663,3.6722,3.6753,3.6791,3.6839,3.6857,3.691,3.697,3.6969,3.7036,3.7074,3.7145,3.717,3.7222,3.7202,3.7226,3.7232,3.7237,3.7242,3.7083,3.7232,3.7232,3.7231,3.7231,3.7231,0,3.6722,3.6747,3.6801,3.6858,3.6904,3.6886,3.693,3.6969,3.7029,3.7066,3.7113,3.7184,3.724,3.7265,3.732,3.7357,3.7351,3.7371,3.7368,3.7373,3.7258,3.7238,3.7374,3.7374,3.7374,3.7374,3.7374,3.7374,3.6805,3.6887,3.6895,3.6991,3.7015,3.7081,3.7108,3.7142,3.7171,3.7251,3.7298,3.7314,3.7345,3.7402,3.7452,3.7458,3.7478,3.7501,3.7503,3.7396,3.7381,3.7367,3.7349,3.7506,3.7506,3.7614,3.7615,3.7616]}]]